Time,TemperatureF,DewpointF,PressureIn,WindDirection,WindDirectionDegrees,WindSpeedMPH,WindSpeedGustMPH,Humidity,HourlyPrecipIn,Conditions,Clouds,dailyrainin,SoftwareType,DateUTC
2013-03-24 00:00:00,29.6,28.3,30.06,NNE,33,0.0,0.0,95,0.00,,,0.00,Wunderground v.1.15,2013-03-24 05:00:00,
2013-03-24 00:10:00,29.5,28.2,30.05,NE,38,0.0,0.0,95,0.00,,,0.00,Wunderground v.1.15,2013-03-24 05:10:00,
2013-03-24 00:15:00,29.4,28.1,30.05,NE,38,0.0,0.0,95,0.00,,,0.00,Wunderground v.1.15,2013-03-24 05:15:00,
2013-03-24 00:20:00,29.4,28.1,30.05,NE,38,0.0,0.0,95,0.00,,,0.00,Wunderground v.1.15,2013-03-24 05:20:00,
2013-03-24 00:25:00,29.3,28.0,30.04,NE,38,0.0,0.0,95,0.00,,,0.00,Wunderground v.1.15,2013-03-24 05:25:00,
2013-03-24 00:30:00,29.3,28.0,30.04,NNE,14,0.0,0.0,95,0.00,,,0.00,Wunderground v.1.15,2013-03-24 05:30:00,
2013-03-24 00:35:00,29.3,28.0,30.04,NNE,19,0.0,0.0,95,0.00,,,0.00,Wunderground v.1.15,2013-03-24 05:35:00,
2013-03-24 00:40:00,29.3,28.0,30.04,NNE,25,0.0,0.0,95,0.00,,,0.00,Wunderground v.1.15,2013-03-24 05:40:00,
2013-03-24 00:50:00,29.3,28.0,30.04,NNE,33,0.0,0.0,95,0.00,,,0.00,Wunderground v.1.15,2013-03-24 05:50:00,
2013-03-24 01:00:00,29.3,27.8,30.04,NE,38,0.0,0.0,94,0.00,,,0.00,Wunderground v.1.15,2013-03-24 06:00:00,
2013-03-24 01:05:00,29.3,27.8,30.03,NE,41,0.0,0.0,94,0.00,,,0.00,Wunderground v.1.15,2013-03-24 06:05:00,
2013-03-24 01:10:00,29.3,27.8,30.03,NNE,14,0.0,0.0,94,0.00,,,0.00,Wunderground v.1.15,2013-03-24 06:10:00,
2013-03-24 01:15:00,29.3,27.8,30.04,East,81,0.0,0.0,94,0.00,,,0.00,Wunderground v.1.15,2013-03-24 06:15:00,
2013-03-24 01:20:00,29.3,27.8,30.04,ENE,65,0.0,0.0,94,0.00,,,0.00,Wunderground v.1.15,2013-03-24 06:20:00,
2013-03-24 01:25:00,29.3,27.8,30.04,North,355,0.0,0.0,94,0.00,,,0.00,Wunderground v.1.15,2013-03-24 06:25:00,
2013-03-24 01:30:00,29.4,27.9,30.04,NE,44,0.0,0.0,94,0.00,,,0.00,Wunderground v.1.15,2013-03-24 06:30:00,
2013-03-24 01:40:00,29.4,27.9,30.04,NE,48,0.0,0.0,94,0.00,,,0.00,Wunderground v.1.15,2013-03-24 06:40:00,
2013-03-24 01:45:00,29.4,27.9,30.04,North,350,0.0,0.0,94,0.00,,,0.00,Wunderground v.1.15,2013-03-24 06:45:00,
2013-03-24 01:50:00,29.4,27.9,30.04,North,5,0.0,0.0,94,0.00,,,0.00,Wunderground v.1.15,2013-03-24 06:50:00,
2013-03-24 01:55:00,29.4,27.9,30.03,NNE,13,0.0,0.0,94,0.00,,,0.00,Wunderground v.1.15,2013-03-24 06:55:00,
2013-03-24 02:05:00,29.4,28.1,30.03,NE,42,0.0,0.0,95,0.00,,,0.00,Wunderground v.1.15,2013-03-24 07:05:00,
2013-03-24 02:10:00,29.4,28.1,30.02,NE,41,0.0,0.0,95,0.00,,,0.00,Wunderground v.1.15,2013-03-24 07:10:00,
2013-03-24 02:15:00,29.4,28.1,30.02,NNW,337,0.0,0.0,95,0.00,,,0.00,Wunderground v.1.15,2013-03-24 07:15:00,
2013-03-24 02:20:00,29.4,28.1,30.03,NNW,343,0.0,0.0,95,0.00,,,0.00,Wunderground v.1.15,2013-03-24 07:20:00,
2013-03-24 02:30:00,29.4,28.1,30.02,NNW,344,0.0,0.0,95,0.00,,,0.00,Wunderground v.1.15,2013-03-24 07:30:00,
2013-03-24 02:35:00,29.3,28.0,30.02,NNW,344,0.0,0.0,95,0.00,,,0.00,Wunderground v.1.15,2013-03-24 07:35:00,
2013-03-24 02:40:00,29.4,28.1,30.02,NNW,346,0.0,0.0,95,0.00,,,0.00,Wunderground v.1.15,2013-03-24 07:40:00,
2013-03-24 02:45:00,29.3,28.0,30.02,North,355,0.0,0.0,95,0.00,,,0.00,Wunderground v.1.15,2013-03-24 07:45:00,
2013-03-24 02:50:00,29.3,28.0,30.01,NNW,329,0.0,0.0,95,0.00,,,0.00,Wunderground v.1.15,2013-03-24 07:50:00,
2013-03-24 02:55:00,29.3,28.0,30.01,North,355,0.0,0.0,95,0.00,,,0.00,Wunderground v.1.15,2013-03-24 07:55:00,
2013-03-24 03:00:00,29.3,28.0,30.01,North,360,0.0,0.0,95,0.00,,,0.00,Wunderground v.1.15,2013-03-24 08:00:00,
2013-03-24 03:05:00,29.3,28.0,30.01,North,360,0.0,0.0,95,0.00,,,0.00,Wunderground v.1.15,2013-03-24 08:05:00,
2013-03-24 03:15:00,29.3,28.0,30.01,NNE,15,0.0,0.0,95,0.00,,,0.00,Wunderground v.1.15,2013-03-24 08:15:00,
2013-03-24 03:20:00,29.3,28.0,30.01,NNW,344,0.0,0.0,95,0.00,,,0.00,Wunderground v.1.15,2013-03-24 08:20:00,
2013-03-24 03:30:00,29.3,28.0,30.00,NE,47,0.0,0.0,95,0.00,,,0.00,Wunderground v.1.15,2013-03-24 08:30:00,
2013-03-24 03:35:00,29.3,28.0,30.00,North,5,0.0,0.0,95,0.00,,,0.00,Wunderground v.1.15,2013-03-24 08:35:00,
2013-03-24 03:40:00,29.2,27.9,30.00,North,5,0.0,0.0,95,0.00,,,0.00,Wunderground v.1.15,2013-03-24 08:40:00,
2013-03-24 03:45:00,29.2,27.9,29.99,North,5,0.0,0.0,95,0.00,,,0.00,Wunderground v.1.15,2013-03-24 08:45:00,
2013-03-24 03:50:00,29.2,27.9,29.99,North,355,0.0,0.0,95,0.00,,,0.00,Wunderground v.1.15,2013-03-24 08:50:00,
2013-03-24 03:55:00,29.1,27.8,29.99,NNW,327,0.0,0.0,95,0.00,,,0.00,Wunderground v.1.15,2013-03-24 08:55:00,
2013-03-24 04:00:00,29.1,27.8,29.98,North,5,0.0,0.0,95,0.00,,,0.00,Wunderground v.1.15,2013-03-24 09:00:00,
2013-03-24 04:05:00,29.0,27.7,29.98,NE,55,0.0,0.0,95,0.00,,,0.00,Wunderground v.1.15,2013-03-24 09:05:00,
2013-03-24 04:10:00,29.0,27.7,29.98,NNW,336,0.0,0.0,95,0.00,,,0.00,Wunderground v.1.15,2013-03-24 09:10:00,
2013-03-24 04:20:00,29.0,27.7,29.97,North,9,0.0,0.0,95,0.00,,,0.00,Wunderground v.1.15,2013-03-24 09:20:00,
2013-03-24 04:30:00,29.0,27.7,29.97,NNW,338,0.0,0.0,95,0.00,,,0.00,Wunderground v.1.15,2013-03-24 09:30:00,
2013-03-24 04:35:00,29.0,27.7,29.97,NNE,26,0.0,0.0,95,0.00,,,0.00,Wunderground v.1.15,2013-03-24 09:35:00,
2013-03-24 04:40:00,28.9,27.6,29.97,NNW,336,0.0,0.0,95,0.00,,,0.00,Wunderground v.1.15,2013-03-24 09:40:00,
2013-03-24 04:45:00,28.9,27.6,29.97,North,360,0.0,0.0,95,0.00,,,0.00,Wunderground v.1.15,2013-03-24 09:45:00,
2013-03-24 04:50:00,28.8,27.5,29.97,NNW,342,0.0,0.0,95,0.00,,,0.00,Wunderground v.1.15,2013-03-24 09:50:00,
2013-03-24 04:55:00,28.7,27.4,29.97,North,349,0.0,0.0,95,0.00,,,0.00,Wunderground v.1.15,2013-03-24 09:55:00,
2013-03-24 05:00:00,28.5,27.3,29.97,North,360,0.0,0.0,95,0.00,,,0.00,Wunderground v.1.15,2013-03-24 10:00:00,
2013-03-24 05:05:00,28.4,26.9,29.97,NNW,334,0.0,0.0,94,0.00,,,0.00,Wunderground v.1.15,2013-03-24 10:05:00,
2013-03-24 05:15:00,28.3,26.8,29.97,NNE,21,0.0,0.0,94,0.00,,,0.00,Wunderground v.1.15,2013-03-24 10:15:00,
2013-03-24 05:20:00,28.3,26.8,29.97,NNW,342,0.0,0.0,94,0.00,,,0.00,Wunderground v.1.15,2013-03-24 10:20:00,
2013-03-24 05:25:00,28.3,26.8,29.97,NNW,345,0.0,0.0,94,0.00,,,0.00,Wunderground v.1.15,2013-03-24 10:25:00,
2013-03-24 05:30:00,28.3,26.8,29.97,NNW,332,0.0,0.0,94,0.00,,,0.00,Wunderground v.1.15,2013-03-24 10:30:00,
2013-03-24 05:40:00,28.2,26.7,29.97,North,360,0.0,0.0,94,0.00,,,0.00,Wunderground v.1.15,2013-03-24 10:40:00,
2013-03-24 05:45:00,28.2,26.7,29.97,North,351,0.0,0.0,94,0.00,,,0.00,Wunderground v.1.15,2013-03-24 10:45:00,
2013-03-24 05:50:00,28.2,26.7,29.97,NNW,337,0.0,0.0,94,0.00,,,0.00,Wunderground v.1.15,2013-03-24 10:50:00,
2013-03-24 05:55:00,28.1,26.6,29.97,NNW,333,0.0,0.0,94,0.00,,,0.00,Wunderground v.1.15,2013-03-24 10:55:00,
2013-03-24 06:00:00,28.1,26.6,29.96,NNE,30,0.0,0.0,94,0.00,,,0.00,Wunderground v.1.15,2013-03-24 11:00:00,
2013-03-24 06:10:00,28.0,26.5,29.96,NNW,340,0.0,0.0,94,0.00,,,0.00,Wunderground v.1.15,2013-03-24 11:10:00,
2013-03-24 06:15:00,28.0,26.5,29.96,NE,42,0.0,0.0,94,0.00,,,0.00,Wunderground v.1.15,2013-03-24 11:15:00,
2013-03-24 06:20:00,28.0,26.5,29.96,North,360,0.0,0.0,94,0.00,,,0.00,Wunderground v.1.15,2013-03-24 11:20:00,
2013-03-24 06:25:00,28.0,26.5,29.96,NNW,341,0.0,0.0,94,0.00,,,0.00,Wunderground v.1.15,2013-03-24 11:25:00,
2013-03-24 06:30:00,28.0,26.5,29.96,NNW,344,0.0,0.0,94,0.00,,,0.00,Wunderground v.1.15,2013-03-24 11:30:00,
2013-03-24 06:35:00,27.9,26.4,29.95,NNW,344,0.0,0.0,94,0.00,,,0.00,Wunderground v.1.15,2013-03-24 11:35:00,
2013-03-24 06:40:00,27.9,26.4,29.95,NNW,337,0.0,0.0,94,0.00,,,0.00,Wunderground v.1.15,2013-03-24 11:40:00,
2013-03-24 06:45:00,27.8,26.3,29.95,North,355,0.0,0.0,94,0.00,,,0.00,Wunderground v.1.15,2013-03-24 11:45:00,
2013-03-24 06:50:00,27.8,26.3,29.95,NNW,345,0.0,0.0,94,0.00,,,0.00,Wunderground v.1.15,2013-03-24 11:50:00,
2013-03-24 06:55:00,27.8,26.3,29.95,NNW,345,0.0,0.0,94,0.00,,,0.00,Wunderground v.1.15,2013-03-24 11:55:00,
2013-03-24 07:05:00,27.8,26.3,29.95,NNW,340,0.0,0.0,94,0.00,,,0.00,Wunderground v.1.15,2013-03-24 12:05:00,
2013-03-24 07:10:00,27.8,26.3,29.95,North,360,0.0,0.0,94,0.00,,,0.00,Wunderground v.1.15,2013-03-24 12:10:00,
2013-03-24 07:15:00,27.8,26.3,29.95,North,355,0.0,0.0,94,0.00,,,0.00,Wunderground v.1.15,2013-03-24 12:15:00,
2013-03-24 07:20:00,27.8,26.3,29.95,NNW,343,0.0,0.0,94,0.00,,,0.00,Wunderground v.1.15,2013-03-24 12:20:00,
2013-03-24 07:25:00,27.8,26.3,29.95,North,9,0.0,0.0,94,0.00,,,0.00,Wunderground v.1.15,2013-03-24 12:25:00,
2013-03-24 07:30:00,27.8,26.3,29.94,NNW,345,0.0,0.0,94,0.00,,,0.00,Wunderground v.1.15,2013-03-24 12:30:00,
2013-03-24 07:40:00,27.8,26.3,29.94,NNW,342,0.0,0.0,94,0.00,,,0.00,Wunderground v.1.15,2013-03-24 12:40:00,
2013-03-24 07:45:00,27.8,26.3,29.94,NNW,330,0.0,0.0,94,0.00,,,0.00,Wunderground v.1.15,2013-03-24 12:45:00,
2013-03-24 07:50:00,27.9,26.4,29.95,NNE,17,0.0,0.0,94,0.00,,,0.00,Wunderground v.1.15,2013-03-24 12:50:00,
2013-03-24 07:55:00,27.9,26.4,29.94,NNE,28,0.0,0.0,94,0.00,,,0.00,Wunderground v.1.15,2013-03-24 12:55:00,
2013-03-24 08:00:00,27.9,26.4,29.94,NNE,26,0.0,0.0,94,0.00,,,0.00,Wunderground v.1.15,2013-03-24 13:00:00,
2013-03-24 08:05:00,27.9,26.4,29.94,North,355,0.0,0.0,94,0.00,,,0.00,Wunderground v.1.15,2013-03-24 13:05:00,
2013-03-24 08:10:00,28.0,26.5,29.94,North,355,0.0,0.0,94,0.00,,,0.00,Wunderground v.1.15,2013-03-24 13:10:00,
2013-03-24 08:15:00,28.0,26.5,29.94,NNW,345,1.0,6.0,94,0.00,,,0.00,Wunderground v.1.15,2013-03-24 13:15:00,
2013-03-24 08:20:00,28.0,26.5,29.93,NNW,331,2.0,2.0,94,0.00,,,0.00,Wunderground v.1.15,2013-03-24 13:20:00,
2013-03-24 08:30:00,28.2,26.7,29.93,NNE,17,2.0,2.0,94,0.00,,,0.00,Wunderground v.1.15,2013-03-24 13:30:00,
2013-03-24 08:35:00,28.2,26.7,29.93,NNE,26,2.0,2.0,94,0.00,,,0.00,Wunderground v.1.15,2013-03-24 13:35:00,
2013-03-24 08:40:00,28.3,26.5,29.94,NNW,335,1.0,2.0,93,0.00,,,0.00,Wunderground v.1.15,2013-03-24 13:40:00,
2013-03-24 08:45:00,28.3,26.8,29.94,NNW,345,1.0,8.0,94,0.00,,,0.00,Wunderground v.1.15,2013-03-24 13:45:00,
2013-03-24 08:50:00,28.4,26.6,29.94,NW,320,2.0,2.0,93,0.00,,,0.00,Wunderground v.1.15,2013-03-24 13:50:00,
2013-03-24 08:55:00,28.4,26.6,29.94,NNW,346,1.0,2.0,93,0.00,,,0.00,Wunderground v.1.15,2013-03-24 13:55:00,
2013-03-24 09:00:00,28.5,26.7,29.95,NNE,28,1.0,1.0,93,0.00,,,0.00,Wunderground v.1.15,2013-03-24 14:00:00,
2013-03-24 09:10:00,28.6,26.8,29.94,NW,324,1.0,1.0,93,0.00,,,0.00,Wunderground v.1.15,2013-03-24 14:10:00,
2013-03-24 09:15:00,28.7,26.9,29.94,NNW,333,1.0,2.0,93,0.00,,,0.00,Wunderground v.1.15,2013-03-24 14:15:00,
2013-03-24 09:20:00,28.7,26.9,29.94,NNW,333,2.0,2.0,93,0.00,,,0.00,Wunderground v.1.15,2013-03-24 14:20:00,
2013-03-24 09:25:00,28.8,27.0,29.94,North,9,2.0,2.0,93,0.00,,,0.00,Wunderground v.1.15,2013-03-24 14:25:00,
2013-03-24 09:30:00,29.0,27.2,29.94,NNW,345,1.0,1.0,93,0.00,,,0.00,Wunderground v.1.15,2013-03-24 14:30:00,
2013-03-24 09:35:00,28.9,27.1,29.94,NNW,342,1.0,3.0,93,0.00,,,0.00,Wunderground v.1.15,2013-03-24 14:35:00,
2013-03-24 09:40:00,28.9,27.1,29.94,NNW,344,2.0,3.0,93,0.00,,,0.00,Wunderground v.1.15,2013-03-24 14:40:00,
2013-03-24 09:45:00,28.8,27.0,29.94,NNW,346,3.0,3.0,93,0.00,,,0.00,Wunderground v.1.15,2013-03-24 14:45:00,
2013-03-24 09:50:00,28.8,27.0,29.94,North,355,2.0,5.0,93,0.00,,,0.00,Wunderground v.1.15,2013-03-24 14:50:00,
2013-03-24 10:00:00,28.9,27.1,29.93,North,355,1.0,1.0,93,0.00,,,0.00,Wunderground v.1.15,2013-03-24 15:00:00,
2013-03-24 10:05:00,28.9,27.1,29.93,NNW,348,1.0,1.0,93,0.00,,,0.00,Wunderground v.1.15,2013-03-24 15:05:00,
2013-03-24 10:10:00,28.9,27.1,29.93,North,355,2.0,2.0,93,0.00,,,0.00,Wunderground v.1.15,2013-03-24 15:10:00,
2013-03-24 10:15:00,29.0,27.2,29.93,North,355,2.0,4.0,93,0.00,,,0.00,Wunderground v.1.15,2013-03-24 15:15:00,
2013-03-24 10:20:00,29.1,27.3,29.93,NNE,15,2.0,2.0,93,0.00,,,0.00,Wunderground v.1.15,2013-03-24 15:20:00,
2013-03-24 10:30:00,29.2,27.4,29.93,NNW,348,1.0,3.0,93,0.00,,,0.00,Wunderground v.1.15,2013-03-24 15:30:00,
2013-03-24 10:40:00,29.2,27.4,29.93,NNW,340,2.0,4.0,93,0.00,,,0.00,Wunderground v.1.15,2013-03-24 15:40:00,
2013-03-24 10:45:00,29.2,27.4,29.93,NNW,343,2.0,6.0,93,0.00,,,0.00,Wunderground v.1.15,2013-03-24 15:45:00,
2013-03-24 10:50:00,29.2,27.4,29.93,NNW,345,2.0,6.0,93,0.00,,,0.00,Wunderground v.1.15,2013-03-24 15:50:00,
2013-03-24 10:55:00,29.3,27.5,29.93,North,355,2.0,6.0,93,0.00,,,0.00,Wunderground v.1.15,2013-03-24 15:55:00,
2013-03-24 11:00:00,29.4,27.6,29.93,North,9,1.0,4.0,93,0.00,,,0.00,Wunderground v.1.15,2013-03-24 16:00:00,
2013-03-24 11:10:00,29.4,27.6,29.92,NNW,340,2.0,6.0,93,0.00,,,0.00,Wunderground v.1.15,2013-03-24 16:10:00,
2013-03-24 11:15:00,29.4,27.6,29.92,NNW,346,2.0,6.0,93,0.00,,,0.00,Wunderground v.1.15,2013-03-24 16:15:00,
2013-03-24 11:20:00,29.4,27.6,29.92,NNW,337,3.0,3.0,93,0.00,,,0.00,Wunderground v.1.15,2013-03-24 16:20:00,
2013-03-24 11:25:00,29.4,27.6,29.92,NNW,346,2.0,3.0,93,0.00,,,0.00,Wunderground v.1.15,2013-03-24 16:25:00,
2013-03-24 11:30:00,29.5,27.7,29.92,North,349,2.0,2.0,93,0.00,,,0.00,Wunderground v.1.15,2013-03-24 16:30:00,
2013-03-24 11:35:00,29.5,27.7,29.92,NNW,341,2.0,2.0,93,0.00,,,0.00,Wunderground v.1.15,2013-03-24 16:35:00,
2013-03-24 11:45:00,29.7,27.9,29.92,NNW,333,1.0,2.0,93,0.00,,,0.00,Wunderground v.1.15,2013-03-24 16:45:00,
2013-03-24 11:50:00,29.8,28.0,29.92,WNW,298,1.0,4.0,93,0.00,,,0.00,Wunderground v.1.15,2013-03-24 16:50:00,
2013-03-24 11:55:00,29.7,27.9,29.92,North,355,2.0,4.0,93,0.00,,,0.00,Wunderground v.1.15,2013-03-24 16:55:00,
2013-03-24 12:05:00,29.8,28.0,29.92,NNW,329,1.0,3.0,93,0.00,,,0.00,Wunderground v.1.15,2013-03-24 17:05:00,
2013-03-24 12:10:00,29.7,27.7,29.92,NNW,338,1.0,1.0,92,0.00,,,0.01,Wunderground v.1.15,2013-03-24 17:10:00,
2013-03-24 12:15:00,29.7,27.7,29.92,North,350,0.0,2.0,92,0.00,,,0.01,Wunderground v.1.15,2013-03-24 17:15:00,
2013-03-24 12:20:00,29.6,27.6,29.92,North,9,1.0,1.0,92,0.00,,,0.01,Wunderground v.1.15,2013-03-24 17:20:00,
2013-03-24 12:25:00,29.6,27.8,29.92,North,9,1.0,1.0,93,0.00,,,0.01,Wunderground v.1.15,2013-03-24 17:25:00,
2013-03-24 12:30:00,29.5,27.7,29.92,North,355,1.0,1.0,93,0.00,,,0.01,Wunderground v.1.15,2013-03-24 17:30:00,
2013-03-24 12:40:00,29.6,27.8,29.92,NW,323,0.0,3.0,93,0.00,,,0.02,Wunderground v.1.15,2013-03-24 17:40:00,
2013-03-24 12:45:00,29.8,28.0,29.92,NNW,344,0.0,3.0,93,0.00,,,0.02,Wunderground v.1.15,2013-03-24 17:45:00,
2013-03-24 12:50:00,29.7,27.9,29.92,East,97,1.0,1.0,93,0.00,,,0.02,Wunderground v.1.15,2013-03-24 17:50:00,
2013-03-24 13:00:00,29.9,28.1,29.91,North,360,0.0,0.0,93,0.00,,,0.02,Wunderground v.1.15,2013-03-24 18:00:00,
2013-03-24 13:05:00,30.0,28.2,29.91,NNE,22,0.0,0.0,93,0.00,,,0.02,Wunderground v.1.15,2013-03-24 18:05:00,
2013-03-24 13:10:00,30.2,28.4,29.91,North,355,0.0,0.0,93,0.00,,,0.03,Wunderground v.1.15,2013-03-24 18:10:00,
2013-03-24 13:15:00,30.1,28.3,29.91,NNW,331,1.0,1.0,93,0.00,,,0.03,Wunderground v.1.15,2013-03-24 18:15:00,
2013-03-24 13:25:00,29.8,27.8,29.91,North,349,3.0,3.0,92,0.00,,,0.03,Wunderground v.1.15,2013-03-24 18:25:00,
2013-03-24 13:30:00,29.8,28.0,29.90,North,355,3.0,3.0,93,0.00,,,0.03,Wunderground v.1.15,2013-03-24 18:30:00,
2013-03-24 13:35:00,30.0,28.2,29.90,NNW,334,2.0,8.0,93,0.00,,,0.04,Wunderground v.1.15,2013-03-24 18:35:00,
2013-03-24 13:40:00,30.1,28.3,29.90,NW,325,2.0,3.0,93,0.00,,,0.04,Wunderground v.1.15,2013-03-24 18:40:00,
2013-03-24 13:50:00,30.1,28.1,29.90,NW,309,3.0,5.0,92,0.00,,,0.04,Wunderground v.1.15,2013-03-24 18:50:00,
2013-03-24 13:55:00,30.3,28.5,29.90,NNE,13,2.0,5.0,93,0.00,,,0.04,Wunderground v.1.15,2013-03-24 18:55:00,
2013-03-24 14:00:00,30.3,28.3,29.89,North,349,3.0,7.0,92,0.00,,,0.05,Wunderground v.1.15,2013-03-24 19:00:00,
2013-03-24 14:05:00,30.3,28.5,29.89,NNW,343,4.0,7.0,93,0.00,,,0.05,Wunderground v.1.15,2013-03-24 19:05:00,
2013-03-24 14:10:00,30.5,28.5,29.89,North,360,3.0,5.0,92,0.00,,,0.05,Wunderground v.1.15,2013-03-24 19:10:00,
2013-03-24 14:15:00,30.5,28.5,29.89,North,355,3.0,6.0,92,0.00,,,0.05,Wunderground v.1.15,2013-03-24 19:15:00,
2013-03-24 14:25:00,30.4,28.4,29.89,NNW,333,4.0,7.0,92,0.00,,,0.05,Wunderground v.1.15,2013-03-24 19:25:00,
2013-03-24 14:30:00,30.5,28.5,29.89,NNW,339,3.0,3.0,92,0.00,,,0.06,Wunderground v.1.15,2013-03-24 19:30:00,
2013-03-24 14:35:00,30.5,28.5,29.88,NW,326,3.0,3.0,92,0.00,,,0.06,Wunderground v.1.15,2013-03-24 19:35:00,
2013-03-24 14:40:00,30.5,28.5,29.89,NNW,336,4.0,4.0,92,0.00,,,0.06,Wunderground v.1.15,2013-03-24 19:40:00,
2013-03-24 14:45:00,30.5,28.2,29.88,NNW,337,4.0,6.0,91,0.00,,,0.06,Wunderground v.1.15,2013-03-24 19:45:00,
2013-03-24 14:50:00,30.5,28.2,29.89,NW,306,4.0,5.0,91,0.00,,,0.06,Wunderground v.1.15,2013-03-24 19:50:00,
2013-03-24 15:00:00,30.5,28.2,29.89,NNE,15,5.0,5.0,91,0.00,,,0.06,Wunderground v.1.15,2013-03-24 20:00:00,
2013-03-24 15:05:00,30.5,28.2,29.89,NNW,337,5.0,6.0,91,0.00,,,0.06,Wunderground v.1.15,2013-03-24 20:05:00,
2013-03-24 15:10:00,30.6,28.3,29.88,North,351,5.0,5.0,91,0.00,,,0.06,Wunderground v.1.15,2013-03-24 20:10:00,
2013-03-24 15:15:00,30.6,28.3,29.89,NNW,348,5.0,5.0,91,0.00,,,0.06,Wunderground v.1.15,2013-03-24 20:15:00,
2013-03-24 15:20:00,30.6,28.3,29.89,NNW,335,5.0,5.0,91,0.00,,,0.06,Wunderground v.1.15,2013-03-24 20:20:00,
2013-03-24 15:30:00,30.7,28.4,29.89,NNW,346,5.0,5.0,91,0.00,,,0.07,Wunderground v.1.15,2013-03-24 20:30:00,
2013-03-24 15:40:00,30.7,28.7,29.89,NNW,348,4.0,4.0,92,0.00,,,0.07,Wunderground v.1.15,2013-03-24 20:40:00,
2013-03-24 15:45:00,30.7,28.7,29.89,North,350,4.0,4.0,92,0.00,,,0.07,Wunderground v.1.15,2013-03-24 20:45:00,
2013-03-24 15:50:00,30.6,28.6,29.89,NNW,344,5.0,7.0,92,0.00,,,0.07,Wunderground v.1.15,2013-03-24 20:50:00,
2013-03-24 15:55:00,30.6,28.6,29.89,North,355,6.0,7.0,92,0.00,,,0.07,Wunderground v.1.15,2013-03-24 20:55:00,
2013-03-24 16:00:00,30.7,28.7,29.89,North,355,3.0,3.0,92,0.00,,,0.07,Wunderground v.1.15,2013-03-24 21:00:00,
2013-03-24 16:10:00,30.8,29.0,29.89,NNE,15,2.0,2.0,93,0.00,,,0.07,Wunderground v.1.15,2013-03-24 21:10:00,
2013-03-24 16:15:00,30.8,28.8,29.89,NW,322,2.0,2.0,92,0.00,,,0.07,Wunderground v.1.15,2013-03-24 21:15:00,
2013-03-24 16:20:00,30.8,28.8,29.89,NW,323,3.0,5.0,92,0.00,,,0.07,Wunderground v.1.15,2013-03-24 21:20:00,
2013-03-24 16:25:00,30.8,29.0,29.89,NNW,342,4.0,8.0,93,0.00,,,0.08,Wunderground v.1.15,2013-03-24 21:25:00,
2013-03-24 16:30:00,30.7,28.9,29.89,NNW,334,4.0,4.0,93,0.00,,,0.08,Wunderground v.1.15,2013-03-24 21:30:00,
2013-03-24 16:35:00,30.6,28.8,29.89,NNW,329,4.0,4.0,93,0.00,,,0.08,Wunderground v.1.15,2013-03-24 21:35:00,
2013-03-24 16:40:00,30.5,28.7,29.90,NW,323,5.0,6.0,93,0.00,,,0.08,Wunderground v.1.15,2013-03-24 21:40:00,
2013-03-24 16:45:00,30.4,28.6,29.90,NNW,336,5.0,12.0,93,0.00,,,0.08,Wunderground v.1.15,2013-03-24 21:45:00,
2013-03-24 16:55:00,30.2,28.4,29.90,NNW,340,6.0,6.0,93,0.00,,,0.08,Wunderground v.1.15,2013-03-24 21:55:00,
2013-03-24 17:00:00,30.3,28.8,29.90,North,351,4.0,4.0,94,0.00,,,0.08,Wunderground v.1.15,2013-03-24 22:00:00,
2013-03-24 17:05:00,30.4,28.9,29.90,NNW,341,3.0,4.0,94,0.00,,,0.08,Wunderground v.1.15,2013-03-24 22:05:00,
2013-03-24 17:10:00,30.4,28.9,29.90,NNW,334,4.0,4.0,94,0.00,,,0.08,Wunderground v.1.15,2013-03-24 22:10:00,
2013-03-24 17:15:00,30.5,29.0,29.91,NNW,336,3.0,5.0,94,0.00,,,0.08,Wunderground v.1.15,2013-03-24 22:15:00,
2013-03-24 17:20:00,30.3,28.8,29.91,North,349,3.0,4.0,94,0.00,,,0.08,Wunderground v.1.15,2013-03-24 22:20:00,
2013-03-24 17:25:00,30.1,28.6,29.91,NNW,335,4.0,4.0,94,0.00,,,0.08,Wunderground v.1.15,2013-03-24 22:25:00,
2013-03-24 17:35:00,30.1,28.6,29.91,NNW,331,2.0,4.0,94,0.00,,,0.08,Wunderground v.1.15,2013-03-24 22:35:00,
2013-03-24 17:40:00,30.2,28.9,29.91,North,351,1.0,6.0,95,0.00,,,0.08,Wunderground v.1.15,2013-03-24 22:40:00,
2013-03-24 17:45:00,30.1,28.8,29.91,NW,325,3.0,6.0,95,0.00,,,0.08,Wunderground v.1.15,2013-03-24 22:45:00,
2013-03-24 17:50:00,30.1,28.8,29.92,North,9,4.0,4.0,95,0.00,,,0.08,Wunderground v.1.15,2013-03-24 22:50:00,
2013-03-24 17:55:00,30.1,28.8,29.92,NNW,341,2.0,4.0,95,0.00,,,0.08,Wunderground v.1.15,2013-03-24 22:55:00,
2013-03-24 18:00:00,30.0,28.7,29.92,NNW,342,1.0,1.0,95,0.00,,,0.08,Wunderground v.1.15,2013-03-24 23:00:00,
2013-03-24 18:10:00,30.1,28.8,29.92,NNW,342,1.0,1.0,95,0.00,,,0.08,Wunderground v.1.15,2013-03-24 23:10:00,
2013-03-24 18:15:00,30.2,28.9,29.92,NNW,333,2.0,11.0,95,0.00,,,0.08,Wunderground v.1.15,2013-03-24 23:15:00,
2013-03-24 18:20:00,30.1,28.8,29.92,NNW,328,3.0,3.0,95,0.00,,,0.08,Wunderground v.1.15,2013-03-24 23:20:00,
2013-03-24 18:25:00,30.1,28.8,29.92,NE,42,1.0,3.0,95,0.00,,,0.08,Wunderground v.1.15,2013-03-24 23:25:00,
2013-03-24 18:30:00,30.0,28.7,29.93,North,5,3.0,3.0,95,0.00,,,0.08,Wunderground v.1.15,2013-03-24 23:30:00,
2013-03-24 18:35:00,30.0,28.7,29.93,NNW,337,4.0,4.0,95,0.00,,,0.08,Wunderground v.1.15,2013-03-24 23:35:00,
2013-03-24 18:45:00,30.1,28.8,29.93,North,360,1.0,6.0,95,0.00,,,0.08,Wunderground v.1.15,2013-03-24 23:45:00,
2013-03-24 18:50:00,30.0,28.7,29.93,North,5,4.0,7.0,95,0.00,,,0.08,Wunderground v.1.15,2013-03-24 23:50:00,
2013-03-24 18:55:00,29.8,28.5,29.94,NNW,339,6.0,7.0,95,0.00,,,0.08,Wunderground v.1.15,2013-03-24 23:55:00,
2013-03-24 19:00:00,29.7,28.4,29.94,NNW,331,5.0,5.0,95,0.00,,,0.08,Wunderground v.1.15,2013-03-25 00:00:00,
2013-03-24 19:05:00,29.7,28.4,29.94,NNW,337,4.0,9.0,95,0.00,,,0.08,Wunderground v.1.15,2013-03-25 00:05:00,
2013-03-24 19:10:00,29.5,28.2,29.94,NNE,26,5.0,5.0,95,0.00,,,0.08,Wunderground v.1.15,2013-03-25 00:10:00,
2013-03-24 19:15:00,29.3,28.0,29.94,North,355,5.0,5.0,95,0.00,,,0.08,Wunderground v.1.15,2013-03-25 00:15:00,
2013-03-24 19:20:00,29.2,27.9,29.94,NNW,343,4.0,4.0,95,0.00,,,0.08,Wunderground v.1.15,2013-03-25 00:20:00,
2013-03-24 19:30:00,29.1,27.8,29.95,NW,323,4.0,5.0,95,0.00,,,0.08,Wunderground v.1.15,2013-03-25 00:30:00,
2013-03-24 19:35:00,29.0,27.7,29.95,North,355,4.0,5.0,95,0.00,,,0.08,Wunderground v.1.15,2013-03-25 00:35:00,
2013-03-24 19:40:00,29.0,27.7,29.95,NW,322,3.0,3.0,95,0.00,,,0.08,Wunderground v.1.15,2013-03-25 00:40:00,
2013-03-24 19:45:00,29.0,27.7,29.95,NW,317,3.0,7.0,95,0.00,,,0.08,Wunderground v.1.15,2013-03-25 00:45:00,
2013-03-24 19:50:00,29.0,27.7,29.95,North,360,4.0,6.0,95,0.00,,,0.08,Wunderground v.1.15,2013-03-25 00:50:00,
2013-03-24 19:55:00,29.1,27.8,29.95,NNW,331,3.0,6.0,95,0.00,,,0.08,Wunderground v.1.15,2013-03-25 00:55:00,
2013-03-24 20:05:00,29.1,27.8,29.95,NW,325,3.0,6.0,95,0.00,,,0.08,Wunderground v.1.15,2013-03-25 01:05:00,
2013-03-24 20:10:00,29.1,27.8,29.95,NNW,345,3.0,3.0,95,0.00,,,0.08,Wunderground v.1.15,2013-03-25 01:10:00,
2013-03-24 20:15:00,29.1,27.8,29.95,North,349,3.0,3.0,95,0.00,,,0.08,Wunderground v.1.15,2013-03-25 01:15:00,
2013-03-24 20:20:00,29.1,27.8,29.95,NNW,336,4.0,5.0,95,0.00,,,0.08,Wunderground v.1.15,2013-03-25 01:20:00,
2013-03-24 20:25:00,29.2,27.9,29.95,NNW,332,4.0,5.0,95,0.00,,,0.08,Wunderground v.1.15,2013-03-25 01:25:00,
2013-03-24 20:30:00,29.2,27.9,29.95,NNW,336,2.0,2.0,95,0.00,,,0.08,Wunderground v.1.15,2013-03-25 01:30:00,
2013-03-24 20:35:00,29.2,27.9,29.95,NNW,345,0.0,2.0,95,0.00,,,0.08,Wunderground v.1.15,2013-03-25 01:35:00,
2013-03-24 20:40:00,29.2,28.2,29.95,NW,321,1.0,4.0,96,0.00,,,0.08,Wunderground v.1.15,2013-03-25 01:40:00,
2013-03-24 20:45:00,29.1,27.8,29.95,NNW,335,3.0,6.0,95,0.00,,,0.08,Wunderground v.1.15,2013-03-25 01:45:00,
2013-03-24 20:55:00,29.0,27.7,29.95,NNW,329,3.0,4.0,95,0.00,,,0.08,Wunderground v.1.15,2013-03-25 01:55:00,
2013-03-24 21:00:00,29.0,27.7,29.95,NW,310,1.0,1.0,95,0.00,,,0.08,Wunderground v.1.15,2013-03-25 02:00:00,
2013-03-24 21:05:00,28.9,27.6,29.95,NNW,338,0.0,1.0,95,0.00,,,0.08,Wunderground v.1.15,2013-03-25 02:05:00,
2013-03-24 21:10:00,28.9,27.6,29.95,North,360,1.0,1.0,95,0.00,,,0.08,Wunderground v.1.15,2013-03-25 02:10:00,
2013-03-24 21:15:00,28.9,27.6,29.95,NNW,342,2.0,2.0,95,0.00,,,0.08,Wunderground v.1.15,2013-03-25 02:15:00,
2013-03-24 21:25:00,28.9,27.6,29.96,NNW,344,0.0,2.0,95,0.00,,,0.08,Wunderground v.1.15,2013-03-25 02:25:00,
2013-03-24 21:30:00,28.9,27.6,29.96,NNW,343,0.0,0.0,95,0.00,,,0.08,Wunderground v.1.15,2013-03-25 02:30:00,
2013-03-24 21:35:00,28.9,27.6,29.96,NW,311,0.0,0.0,95,0.00,,,0.08,Wunderground v.1.15,2013-03-25 02:35:00,
2013-03-24 21:45:00,28.9,27.6,29.96,NNW,336,0.0,0.0,95,0.00,,,0.08,Wunderground v.1.15,2013-03-25 02:45:00,
2013-03-24 21:50:00,29.0,27.7,29.96,North,350,0.0,0.0,95,0.00,,,0.08,Wunderground v.1.15,2013-03-25 02:50:00,
2013-03-24 21:55:00,29.0,27.7,29.96,North,360,0.0,0.0,95,0.00,,,0.08,Wunderground v.1.15,2013-03-25 02:55:00,
2013-03-24 22:00:00,29.0,27.7,29.96,NW,321,0.0,0.0,95,0.00,,,0.08,Wunderground v.1.15,2013-03-25 03:00:00,
2013-03-24 22:10:00,29.0,27.7,29.96,NNW,348,0.0,0.0,95,0.00,,,0.08,Wunderground v.1.15,2013-03-25 03:10:00,
2013-03-24 22:15:00,28.9,27.6,29.96,NNW,340,0.0,0.0,95,0.00,,,0.08,Wunderground v.1.15,2013-03-25 03:15:00,
2013-03-24 22:20:00,28.8,27.5,29.96,NNW,340,1.0,3.0,95,0.00,,,0.08,Wunderground v.1.15,2013-03-25 03:20:00,
2013-03-24 22:25:00,28.8,27.5,29.96,NNW,347,3.0,3.0,95,0.00,,,0.08,Wunderground v.1.15,2013-03-25 03:25:00,
2013-03-24 22:30:00,28.8,27.5,29.96,NNW,344,2.0,2.0,95,0.00,,,0.08,Wunderground v.1.15,2013-03-25 03:30:00,
2013-03-24 22:35:00,28.8,27.5,29.96,NNW,334,0.0,2.0,95,0.00,,,0.08,Wunderground v.1.15,2013-03-25 03:35:00,
2013-03-24 22:40:00,28.8,27.5,29.96,North,355,1.0,1.0,95,0.00,,,0.08,Wunderground v.1.15,2013-03-25 03:40:00,
2013-03-24 22:45:00,28.8,27.5,29.96,North,5,1.0,1.0,95,0.00,,,0.08,Wunderground v.1.15,2013-03-25 03:45:00,
2013-03-24 22:55:00,28.8,27.5,29.96,NW,313,1.0,1.0,95,0.00,,,0.08,Wunderground v.1.15,2013-03-25 03:55:00,
2013-03-24 23:00:00,28.8,27.5,29.96,NW,322,3.0,6.0,95,0.00,,,0.08,Wunderground v.1.15,2013-03-25 04:00:00,
2013-03-24 23:05:00,28.8,27.5,29.96,NNW,337,4.0,6.0,95,0.00,,,0.08,Wunderground v.1.15,2013-03-25 04:05:00,
2013-03-24 23:10:00,28.8,27.5,29.96,North,355,4.0,6.0,95,0.00,,,0.08,Wunderground v.1.15,2013-03-25 04:10:00,
2013-03-24 23:15:00,28.8,27.5,29.96,NW,326,4.0,6.0,95,0.00,,,0.08,Wunderground v.1.15,2013-03-25 04:15:00,
2013-03-24 23:20:00,28.7,27.4,29.96,North,360,4.0,8.0,95,0.00,,,0.08,Wunderground v.1.15,2013-03-25 04:20:00,
2013-03-24 23:25:00,28.7,27.4,29.96,North,350,4.0,8.0,95,0.00,,,0.08,Wunderground v.1.15,2013-03-25 04:25:00,
2013-03-24 23:35:00,28.7,27.4,29.96,NW,315,1.0,3.0,95,0.00,,,0.08,Wunderground v.1.15,2013-03-25 04:35:00,
2013-03-24 23:40:00,28.7,27.4,29.96,WNW,292,0.0,0.0,95,0.00,,,0.08,Wunderground v.1.15,2013-03-25 04:40:00,
2013-03-24 23:45:00,28.7,27.4,29.96,NNW,336,0.0,0.0,95,0.00,,,0.08,Wunderground v.1.15,2013-03-25 04:45:00,
2013-03-24 23:50:00,28.7,27.4,29.97,NNW,332,0.0,0.0,95,0.00,,,0.08,Wunderground v.1.15,2013-03-25 04:50:00,
2013-03-24 23:55:00,28.7,27.4,29.97,NNW,334,0.0,0.0,95,0.00,,,0.08,Wunderground v.1.15,2013-03-25 04:55:00,